| time (UTC) | temp F | wind direction | speed MPH | gust MPH | rain 1hr in | rain 24hr in | rain mn in | humidity % | barometer mb |
| 20260906121100 | 70 | 57 | 2.0 | 3.0 | 0.00 | 0.00 | 0.00 | 91 | 995.3 |
| 20260906120600 | 70 | 48 | 2.0 | 3.0 | 0.00 | 0.00 | 0.00 | 91 | 995.2 |
| 20260906120100 | 70 | 47 | 2.0 | 4.0 | 0.00 | 0.00 | 0.00 | 91 | 995.1 |
| 20260906115600 | 69 | 44 | 2.0 | 6.0 | 0.00 | 0.00 | 0.00 | 91 | 995.1 |
| 20260906115100 | 69 | 42 | 2.0 | 6.0 | 0.00 | 0.00 | 0.00 | 91 | 994.9 |
| 20260906114601 | 69 | 47 | 2.0 | 6.0 | 0.00 | 0.00 | 0.00 | 91 | 994.8 |
| 20260906114100 | 69 | 50 | 2.0 | 4.0 | 0.00 | 0.00 | 0.00 | 91 | 994.8 |
| 20260906113600 | 69 | 46 | 2.0 | 6.0 | 0.00 | 0.00 | 0.00 | 91 | 994.7 |
| 20260906113101 | 70 | 48 | 2.0 | 7.0 | 0.00 | 0.00 | 0.00 | 91 | 994.7 |
| 20260906112600 | 70 | 46 | 2.0 | 7.0 | 0.00 | 0.00 | 0.00 | 91 | 994.6 |
| 20260906112057 | 70 | 46 | 2.0 | 5.0 | 0.00 | 0.00 | 0.00 | 91 | 994.6 |
| 20260906111557 | 70 | 47 | 1.0 | 3.0 | 0.00 | 0.00 | 0.00 | 91 | 994.5 |
| 20260906111059 | 70 | 39 | 2.0 | 4.0 | 0.00 | 0.00 | 0.00 | 91 | 994.4 |
| 20260906110557 | 70 | 47 | 2.0 | 6.0 | 0.00 | 0.00 | 0.00 | 91 | 994.3 |
| 20260906110058 | 70 | 48 | 2.0 | 6.0 | 0.00 | 0.00 | 0.00 | 91 | 994.3 |
| 20260906105558 | 70 | 46 | 2.0 | 4.0 | 0.00 | 0.00 | 0.00 | 90 | 994.2 |
| 20260906105058 | 70 | 47 | 2.0 | 4.0 | 0.00 | 0.00 | 0.00 | 90 | 994.2 |
| 20260906104558 | 70 | 46 | 2.0 | 3.0 | 0.00 | 0.00 | 0.00 | 90 | 994.1 |
| 20260906104058 | 70 | 47 | 2.0 | 4.0 | 0.00 | 0.00 | 0.00 | 90 | 994.1 |
| 20260906103558 | 70 | 46 | 2.0 | 4.0 | 0.00 | 0.00 | 0.00 | 90 | 994.0 |
| 20260906103058 | 70 | 46 | 2.0 | 4.0 | 0.00 | 0.00 | 0.00 | 90 | 994.0 |
| 20260906102817 | 70 | 46 | 2.0 | 4.0 | 0.00 | 0.00 | 0.00 | 90 | 994.0 |
| 20260906102055 | 70 | 45 | 2.0 | 4.0 | 0.00 | 0.00 | 0.00 | 90 | 994.0 |
| 20260906101819 | 70 | 46 | 2.0 | 4.0 | 0.00 | 0.00 | 0.00 | 90 | 993.9 |
| 20260906101056 | 70 | 46 | 2.0 | 4.0 | 0.00 | 0.00 | 0.00 | 90 | 993.8 |
| 20260906100556 | 71 | 46 | 2.0 | 4.0 | 0.00 | 0.00 | 0.00 | 90 | 993.8 |
| 20260906100314 | 71 | 46 | 2.0 | 5.0 | 0.00 | 0.00 | 0.00 | 90 | 993.8 |
| 20260906095556 | 71 | 47 | 3.0 | 5.0 | 0.00 | 0.00 | 0.00 | 90 | 993.8 |
| 20260906095056 | 71 | 45 | 3.0 | 4.0 | 0.00 | 0.00 | 0.00 | 90 | 993.8 |
| 20260906094556 | 71 | 47 | 3.0 | 4.0 | 0.00 | 0.00 | 0.00 | 90 | 993.8 |
| 20260906094056 | 71 | 46 | 2.0 | 4.0 | 0.00 | 0.00 | 0.00 | 89 | 993.7 |
| 20260906094040 | 71 | 48 | 2.0 | 4.0 | 0.00 | 0.00 | 0.00 | 89 | 993.8 |
| 20260906093056 | 71 | 46 | 2.0 | 3.0 | 0.00 | 0.00 | 0.00 | 89 | 993.7 |
| 20260906092554 | 71 | 47 | 2.0 | 3.0 | 0.00 | 0.00 | 0.00 | 89 | 993.6 |
| 20260906092053 | 71 | 45 | 2.0 | 4.0 | 0.00 | 0.00 | 0.00 | 89 | 993.6 |
| 20260906091553 | 71 | 45 | 2.0 | 4.0 | 0.00 | 0.00 | 0.00 | 89 | 993.6 |
| 20260906091054 | 71 | 47 | 2.0 | 8.0 | 0.00 | 0.00 | 0.00 | 88 | 993.6 |
| 20260906090553 | 71 | 15 | 2.0 | 13.0 | 0.00 | 0.00 | 0.00 | 88 | 993.6 |
| 20260906090054 | 72 | 349 | 2.0 | 13.0 | 0.00 | 0.00 | 0.00 | 87 | 993.6 |
| 20260906085816 | 72 | 53 | 2.0 | 13.0 | 0.00 | 0.00 | 0.00 | 87 | 993.6 |
| 20260906085054 | 72 | 39 | 2.0 | 9.0 | 0.00 | 0.00 | 0.00 | 88 | 993.5 |
| 20260906084817 | 72 | 325 | 2.0 | 7.0 | 0.00 | 0.00 | 0.00 | 88 | 993.5 |
| 20260906084054 | 72 | 0 | 1.0 | 7.0 | 0.00 | 0.00 | 0.00 | 88 | 993.5 |
| 20260906083554 | 72 | 26 | 1.0 | 6.0 | 0.00 | 0.00 | 0.00 | 87 | 993.5 |
| 20260906083055 | 72 | 16 | 2.0 | 6.0 | 0.00 | 0.00 | 0.00 | 87 | 993.5 |
| 20260906082555 | 72 | 358 | 2.0 | 6.0 | 0.00 | 0.00 | 0.00 | 87 | 993.5 |
| 20260906082051 | 72 | 46 | 3.0 | 9.0 | 0.00 | 0.00 | 0.00 | 86 | 993.5 |
| 20260906081552 | 72 | 45 | 3.0 | 9.0 | 0.00 | 0.00 | 0.00 | 86 | 993.5 |
| 20260906081052 | 72 | 6 | 2.0 | 9.0 | 0.00 | 0.00 | 0.00 | 87 | 993.6 |
| 20260906080552 | 72 | 83 | 2.0 | 10.0 | 0.00 | 0.00 | 0.00 | 87 | 993.6 |
| 20260906080051 | 72 | 41 | 3.0 | 15.0 | 0.00 | 0.00 | 0.00 | 86 | 993.5 |
| 20260906075549 | 72 | 31 | 6.0 | 18.0 | 0.00 | 0.00 | 0.00 | 86 | 993.6 |
| 20260906075049 | 72 | 32 | 7.0 | 18.0 | 0.00 | 0.00 | 0.00 | 86 | 993.6 |
| 20260906074810 | 73 | 33 | 4.0 | 18.0 | 0.00 | 0.00 | 0.00 | 86 | 993.7 |
| 20260906074050 | 73 | 330 | 4.0 | 17.0 | 0.00 | 0.00 | 0.00 | 85 | 993.8 |
| 20260906073549 | 73 | 44 | 4.0 | 17.0 | 0.00 | 0.00 | 0.00 | 85 | 993.8 |
| 20260906073050 | 73 | 49 | 4.0 | 10.0 | 0.00 | 0.00 | 0.00 | 85 | 993.8 |
| 20260906072547 | 73 | 47 | 4.0 | 10.0 | 0.00 | 0.00 | 0.00 | 85 | 993.7 |
| 20260906072046 | 73 | 43 | 4.0 | 10.0 | 0.00 | 0.00 | 0.00 | 86 | 993.7 |
| 20260906071546 | 73 | 44 | 3.0 | 8.0 | 0.00 | 0.00 | 0.00 | 85 | 993.7 |
| 20260906071047 | 73 | 30 | 3.0 | 7.0 | 0.00 | 0.00 | 0.00 | 85 | 993.7 |
| 20260906070804 | 73 | 26 | 3.0 | 7.0 | 0.00 | 0.00 | 0.00 | 85 | 993.7 |
| 20260906070307 | 73 | 25 | 3.0 | 12.0 | 0.00 | 0.00 | 0.00 | 84 | 993.8 |
| 20260906065547 | 73 | 11 | 4.0 | 12.0 | 0.00 | 0.00 | 0.00 | 84 | 993.8 |
| 20260906065047 | 74 | 29 | 4.0 | 12.0 | 0.00 | 0.00 | 0.00 | 84 | 993.8 |
| 20260906064547 | 74 | 294 | 4.0 | 9.0 | 0.00 | 0.00 | 0.00 | 83 | 993.8 |
| 20260906064047 | 74 | 2 | 4.0 | 9.0 | 0.00 | 0.00 | 0.00 | 83 | 993.8 |
| 20260906063547 | 74 | 286 | 4.0 | 11.0 | 0.00 | 0.00 | 0.00 | 83 | 993.8 |
| 20260906063316 | 74 | 39 | 5.0 | 12.0 | 0.00 | 0.00 | 0.00 | 83 | 993.9 |
| 20260906062545 | 74 | 33 | 4.0 | 12.0 | 0.00 | 0.00 | 0.00 | 83 | 993.9 |
| 20260906062044 | 74 | 46 | 4.0 | 9.0 | 0.00 | 0.00 | 0.00 | 83 | 993.9 |
| 20260906061545 | 74 | 303 | 4.0 | 14.0 | 0.00 | 0.00 | 0.00 | 83 | 993.9 |
| 20260906061044 | 74 | 27 | 5.0 | 14.0 | 0.00 | 0.00 | 0.00 | 82 | 993.9 |
| 20260906060544 | 74 | 43 | 6.0 | 19.0 | 0.00 | 0.00 | 0.00 | 82 | 993.8 |
| 20260906060046 | 74 | 40 | 5.0 | 19.0 | 0.00 | 0.00 | 0.00 | 82 | 993.8 |
| 20260906055545 | 74 | 58 | 4.0 | 10.0 | 0.00 | 0.00 | 0.00 | 82 | 993.9 |
| 20260906055045 | 74 | 46 | 4.0 | 13.0 | 0.00 | 0.00 | 0.00 | 83 | 993.8 |
| 20260906054545 | 74 | 40 | 4.0 | 13.0 | 0.00 | 0.00 | 0.00 | 83 | 993.8 |
| 20260906054046 | 74 | 45 | 4.0 | 9.0 | 0.00 | 0.00 | 0.00 | 83 | 993.7 |
| 20260906053545 | 74 | 45 | 4.0 | 10.0 | 0.00 | 0.00 | 0.00 | 83 | 993.7 |
| 20260906053042 | 74 | 44 | 4.0 | 11.0 | 0.00 | 0.00 | 0.00 | 82 | 993.6 |
| 20260906052543 | 74 | 45 | 4.0 | 11.0 | 0.00 | 0.00 | 0.00 | 82 | 993.6 |
| 20260906052042 | 74 | 51 | 5.0 | 12.0 | 0.00 | 0.00 | 0.00 | 82 | 993.5 |
| 20260906051802 | 74 | 38 | 5.0 | 13.0 | 0.00 | 0.00 | 0.00 | 82 | 993.5 |
| 20260906051042 | 74 | 45 | 5.0 | 13.0 | 0.00 | 0.00 | 0.00 | 83 | 993.4 |
| 20260906050804 | 74 | 22 | 5.0 | 13.0 | 0.00 | 0.00 | 0.00 | 83 | 993.4 |
| 20260906050300 | 74 | 38 | 5.0 | 13.0 | 0.00 | 0.00 | 0.00 | 83 | 993.3 |
| 20260906045540 | 74 | 45 | 4.0 | 12.0 | 0.00 | 0.00 | 0.00 | 83 | 993.3 |
| 20260906045038 | 74 | 30 | 4.0 | 12.0 | 0.00 | 0.00 | 0.00 | 82 | 993.3 |
| 20260906044539 | 74 | 42 | 5.0 | 10.0 | 0.00 | 0.00 | 0.00 | 82 | 993.2 |
| 20260906044038 | 74 | 345 | 4.0 | 10.0 | 0.00 | 0.00 | 0.00 | 82 | 993.2 |
| 20260906043538 | 74 | 40 | 5.0 | 11.0 | 0.00 | 0.00 | 0.00 | 83 | 993.1 |
| 20260906043305 | 74 | 35 | 5.0 | 11.0 | 0.00 | 0.00 | 0.00 | 82 | 993.1 |
| 20260906042539 | 74 | 43 | 4.0 | 12.0 | 0.00 | 0.00 | 0.00 | 82 | 993.0 |
| 20260906042038 | 74 | 48 | 5.0 | 12.0 | 0.00 | 0.00 | 0.00 | 82 | 993.0 |
| 20260906041538 | 74 | 45 | 4.0 | 11.0 | 0.00 | 0.00 | 0.00 | 82 | 993.0 |
| 20260906041037 | 74 | 49 | 4.0 | 10.0 | 0.00 | 0.00 | 0.00 | 82 | 992.9 |
| 20260906040535 | 74 | 44 | 5.0 | 12.0 | 0.00 | 0.00 | 0.00 | 82 | 992.9 |
| 20260906040517 | 74 | 39 | 4.0 | 12.0 | 0.00 | 0.00 | 0.00 | 82 | 992.8 |
| 20260906035537 | 74 | 35 | 3.0 | 7.0 | 0.00 | 0.00 | 0.00 | 82 | 992.8 |
| 20260906035037 | 74 | 46 | 4.0 | 12.0 | 0.00 | 0.00 | 0.00 | 82 | 992.8 |
| 20260906034538 | 74 | 46 | 4.0 | 12.0 | 0.00 | 0.00 | 0.00 | 82 | 992.9 |
| 20260906034037 | 74 | 35 | 4.0 | 19.0 | 0.00 | 0.00 | 0.00 | 82 | 992.9 |
| 20260906033537 | 74 | 23 | 4.0 | 19.0 | 0.00 | 0.00 | 0.00 | 82 | 992.7 |
| 20260906033258 | 74 | 39 | 5.0 | 12.0 | 0.00 | 0.00 | 0.00 | 82 | 992.7 |
| 20260906032537 | 74 | 41 | 6.0 | 14.0 | 0.00 | 0.00 | 0.00 | 82 | 992.7 |
| 20260906032037 | 74 | 45 | 6.0 | 16.0 | 0.00 | 0.00 | 0.00 | 82 | 992.6 |
| 20260906031534 | 74 | 33 | 5.0 | 16.0 | 0.00 | 0.00 | 0.00 | 82 | 992.7 |
| 20260906031034 | 74 | 45 | 4.0 | 9.0 | 0.00 | 0.00 | 0.00 | 82 | 992.7 |
| 20260906030755 | 74 | 45 | 4.0 | 10.0 | 0.00 | 0.00 | 0.00 | 82 | 992.8 |
| 20260906030033 | 74 | 44 | 4.0 | 14.0 | 0.00 | 0.00 | 0.00 | 82 | 992.8 |
| 20260906025754 | 74 | 29 | 5.0 | 20.0 | 0.00 | 0.00 | 0.00 | 82 | 992.9 |
| 20260906025034 | 74 | 46 | 5.0 | 20.0 | 0.00 | 0.00 | 0.00 | 82 | 992.7 |
| 20260906024756 | 74 | 44 | 5.0 | 18.0 | 0.00 | 0.00 | 0.00 | 81 | 992.7 |
| 20260906024035 | 74 | 36 | 6.0 | 18.0 | 0.00 | 0.00 | 0.00 | 81 | 992.8 |
| 20260906023534 | 74 | 58 | 6.0 | 16.0 | 0.00 | 0.00 | 0.00 | 81 | 992.7 |
| 20260906023035 | 73 | 31 | 6.0 | 16.0 | 0.00 | 0.00 | 0.00 | 82 | 992.8 |
| 20260906022534 | 73 | 38 | 6.0 | 16.0 | 0.00 | 0.00 | 0.00 | 82 | 992.9 |
| 20260906022034 | 73 | 34 | 6.0 | 13.0 | 0.00 | 0.00 | 0.00 | 82 | 992.9 |
| 20260906022017 | 74 | 54 | 6.0 | 13.0 | 0.00 | 0.00 | 0.00 | 81 | 992.9 |
| 20260906021032 | 74 | 31 | 6.0 | 10.0 | 0.00 | 0.00 | 0.00 | 80 | 992.8 |
| 20260906020532 | 74 | 34 | 6.0 | 16.0 | 0.00 | 0.00 | 0.00 | 80 | 992.9 |
| 20260906020253 | 74 | 32 | 8.0 | 16.0 | 0.00 | 0.00 | 0.00 | 80 | 992.8 |
| 20260906015529 | 74 | 39 | 8.0 | 16.0 | 0.00 | 0.00 | 0.00 | 80 | 992.8 |
| 20260906015029 | 74 | 31 | 6.0 | 16.0 | 0.00 | 0.00 | 0.00 | 79 | 992.8 |
| 20260906014529 | 74 | 51 | 7.0 | 12.0 | 0.00 | 0.00 | 0.00 | 79 | 992.7 |
| 20260906014249 | 74 | 40 | 7.0 | 14.0 | 0.00 | 0.00 | 0.00 | 79 | 992.7 |
| 20260906013529 | 75 | 52 | 8.0 | 15.0 | 0.00 | 0.00 | 0.00 | 79 | 992.6 |
| 20260906013029 | 75 | 50 | 7.0 | 15.0 | 0.00 | 0.00 | 0.00 | 79 | 992.6 |
| 20260906012751 | 75 | 39 | 6.0 | 12.0 | 0.00 | 0.00 | 0.00 | 80 | 992.6 |
| 20260906012030 | 75 | 10 | 5.0 | 14.0 | 0.00 | 0.00 | 0.00 | 80 | 992.6 |
| 20260906011527 | 75 | 326 | 5.0 | 14.0 | 0.00 | 0.00 | 0.00 | 80 | 992.5 |
| 20260906011023 | 75 | 14 | 6.0 | 10.0 | 0.00 | 0.00 | 0.00 | 80 | 992.5 |
| 20260906010744 | 75 | 32 | 7.0 | 11.0 | 0.00 | 0.00 | 0.00 | 80 | 992.5 |
| 20260906010019 | 76 | 31 | 6.0 | 11.0 | 0.00 | 0.00 | 0.00 | 80 | 992.4 |
| 20260906005743 | 76 | 20 | 5.0 | 11.0 | 0.00 | 0.00 | 0.00 | 79 | 992.4 |
| 20260906005237 | 76 | 335 | 4.0 | 9.0 | 0.00 | 0.00 | 0.00 | 79 | 992.3 |
| 20260906004518 | 77 | 40 | 3.0 | 7.0 | 0.00 | 0.00 | 0.00 | 79 | 992.4 |
| 20260906004018 | 77 | 31 | 4.0 | 9.0 | 0.00 | 0.00 | 0.00 | 78 | 992.3 |
| 20260906003518 | 77 | 348 | 4.0 | 10.0 | 0.00 | 0.00 | 0.00 | 78 | 992.2 |
| 20260906003018 | 78 | 354 | 4.0 | 10.0 | 0.00 | 0.00 | 0.00 | 77 | 992.1 |
| 20260906002518 | 78 | 340 | 4.0 | 9.0 | 0.00 | 0.00 | 0.00 | 76 | 991.9 |
| 20260906002018 | 78 | 57 | 3.0 | 9.0 | 0.00 | 0.00 | 0.00 | 76 | 991.8 |
| 20260906001519 | 79 | 29 | 3.0 | 7.0 | 0.00 | 0.00 | 0.00 | 75 | 991.8 |
| 20260906001016 | 79 | 292 | 3.0 | 12.0 | 0.00 | 0.00 | 0.00 | 74 | 991.7 |
| 20260906000516 | 79 | 42 | 3.0 | 12.0 | 0.00 | 0.00 | 0.00 | 74 | 991.6 |
| 20260906000013 | 79 | 5 | 3.0 | 12.0 | 0.00 | 0.00 | 0.00 | 74 | 991.5 |
| 20260905235513 | 79 | 27 | 3.0 | 11.0 | 0.00 | 0.00 | 0.00 | 74 | 991.5 |
| 20260905235013 | 80 | 338 | 3.0 | 8.0 | 0.00 | 0.00 | 0.00 | 74 | 991.5 |
| 20260905234513 | 80 | 34 | 3.0 | 8.0 | 0.00 | 0.00 | 0.00 | 72 | 991.4 |
| 20260905234013 | 81 | 27 | 3.0 | 6.0 | 0.00 | 0.00 | 0.00 | 72 | 991.5 |
| 20260905233512 | 81 | 30 | 3.0 | 7.0 | 0.00 | 0.00 | 0.00 | 71 | 991.6 |
| 20260905233501 | 81 | 37 | 3.0 | 7.0 | 0.00 | 0.00 | 0.00 | 72 | 991.6 |
| 20260905232513 | 81 | 149 | 2.0 | 6.0 | 0.00 | 0.00 | 0.00 | 72 | 991.6 |
| 20260905232013 | 81 | 48 | 2.0 | 6.0 | 0.00 | 0.00 | 0.00 | 72 | 991.5 |
| 20260905231951 | 81 | 46 | 2.0 | 5.0 | 0.00 | 0.00 | 0.00 | 72 | 991.5 |
| 20260905231007 | 81 | 264 | 2.0 | 6.0 | 0.00 | 0.00 | 0.00 | 72 | 991.5 |
| 20260905230507 | 81 | 35 | 3.0 | 6.0 | 0.00 | 0.00 | 0.00 | 71 | 991.5 |
| 20260905230004 | 81 | 23 | 3.0 | 8.0 | 0.00 | 0.00 | 0.00 | 71 | 991.4 |
| 20260905225505 | 81 | 357 | 3.0 | 8.0 | 0.00 | 0.00 | 0.00 | 71 | 991.3 |
| 20260905225005 | 81 | 51 | 3.0 | 7.0 | 0.00 | 0.00 | 0.00 | 71 | 991.3 |
| 20260905224505 | 81 | 29 | 3.0 | 7.0 | 0.00 | 0.00 | 0.00 | 72 | 991.2 |
| 20260905224006 | 81 | 43 | 2.0 | 6.0 | 0.00 | 0.00 | 0.00 | 72 | 991.0 |
| 20260905223505 | 81 | 3 | 3.0 | 6.0 | 0.00 | 0.00 | 0.00 | 72 | 991.2 |
| 20260905223006 | 81 | 348 | 3.0 | 7.0 | 0.00 | 0.00 | 0.00 | 72 | 991.3 |
| 20260905222505 | 82 | 283 | 4.0 | 8.0 | 0.00 | 0.00 | 0.00 | 71 | 991.4 |
| 20260905222452 | 82 | 17 | 4.0 | 8.0 | 0.00 | 0.00 | 0.00 | 71 | 991.2 |
| 20260905221505 | 82 | 345 | 4.0 | 9.0 | 0.00 | 0.00 | 0.00 | 71 | 991.1 |
| 20260905221003 | 82 | 52 | 4.0 | 9.0 | 0.00 | 0.00 | 0.00 | 71 | 991.1 |
| 20260905220459 | 82 | 51 | 4.0 | 11.0 | 0.00 | 0.00 | 0.00 | 71 | 991.2 |
| 20260905220000 | 82 | 3 | 4.0 | 11.0 | 0.00 | 0.00 | 0.00 | 72 | 991.2 |
| 20260905215500 | 82 | 75 | 3.0 | 7.0 | 0.00 | 0.00 | 0.00 | 72 | 991.2 |
| 20260905215223 | 83 | 51 | 3.0 | 8.0 | 0.00 | 0.00 | 0.00 | 71 | 991.2 |
| 20260905214500 | 83 | 46 | 4.0 | 9.0 | 0.00 | 0.00 | 0.00 | 71 | 991.2 |
| 20260905214000 | 84 | 85 | 5.0 | 11.0 | 0.00 | 0.00 | 0.00 | 70 | 991.1 |
| 20260905213501 | 84 | 347 | 4.0 | 12.0 | 0.00 | 0.00 | 0.00 | 69 | 991.0 |
| 20260905213001 | 85 | 41 | 4.0 | 12.0 | 0.00 | 0.00 | 0.00 | 69 | 990.9 |
| 20260905212721 | 85 | 13 | 4.0 | 8.0 | 0.00 | 0.00 | 0.00 | 69 | 990.9 |
| 20260905212001 | 85 | 5 | 4.0 | 9.0 | 0.00 | 0.00 | 0.00 | 68 | 990.9 |
| 20260905211500 | 85 | 289 | 4.0 | 9.0 | 0.00 | 0.00 | 0.00 | 68 | 990.8 |
| 20260905210957 | 85 | 289 | 4.0 | 9.0 | 0.00 | 0.00 | 0.00 | 68 | 990.8 |
| 20260905210454 | 86 | 329 | 4.0 | 9.0 | 0.00 | 0.00 | 0.00 | 67 | 990.8 |
| 20260905205954 | 86 | 47 | 4.0 | 8.0 | 0.00 | 0.00 | 0.00 | 68 | 990.8 |
| 20260905205454 | 86 | 5 | 4.0 | 8.0 | 0.00 | 0.00 | 0.00 | 68 | 990.8 |
| 20260905205215 | 86 | 333 | 5.0 | 11.0 | 0.00 | 0.00 | 0.00 | 67 | 990.8 |
| 20260905204455 | 86 | 352 | 5.0 | 11.0 | 0.00 | 0.00 | 0.00 | 67 | 990.9 |
| 20260905203955 | 85 | 39 | 4.0 | 9.0 | 0.00 | 0.00 | 0.00 | 68 | 990.9 |
| 20260905203455 | 85 | 269 | 4.0 | 9.0 | 0.00 | 0.00 | 0.00 | 68 | 990.9 |
| 20260905202955 | 86 | 73 | 4.0 | 9.0 | 0.00 | 0.00 | 0.00 | 68 | 990.9 |
| 20260905202456 | 87 | 355 | 4.0 | 9.0 | 0.00 | 0.00 | 0.00 | 66 | 991.0 |
| 20260905201956 | 87 | 313 | 4.0 | 9.0 | 0.00 | 0.00 | 0.00 | 67 | 991.0 |
| 20260905201722 | 87 | 324 | 4.0 | 9.0 | 0.00 | 0.00 | 0.00 | 66 | 990.9 |
| 20260905200951 | 87 | 22 | 4.0 | 10.0 | 0.00 | 0.00 | 0.00 | 66 | 990.9 |
| 20260905200448 | 88 | 73 | 4.0 | 10.0 | 0.00 | 0.00 | 0.00 | 65 | 990.8 |
| 20260905195947 | 89 | 330 | 4.0 | 9.0 | 0.00 | 0.00 | 0.00 | 65 | 990.8 |
| 20260905195447 | 89 | 315 | 4.0 | 9.0 | 0.00 | 0.00 | 0.00 | 64 | 990.8 |
| 20260905195205 | 89 | 13 | 4.0 | 8.0 | 0.00 | 0.00 | 0.00 | 63 | 990.7 |
| 20260905194448 | 89 | 4 | 4.0 | 8.0 | 0.00 | 0.00 | 0.00 | 63 | 990.8 |
| 20260905194209 | 90 | 49 | 4.0 | 10.0 | 0.00 | 0.00 | 0.00 | 63 | 990.8 |
| 20260905193448 | 90 | 6 | 4.0 | 10.0 | 0.00 | 0.00 | 0.00 | 63 | 990.8 |
| 20260905193209 | 90 | 336 | 4.0 | 8.0 | 0.00 | 0.00 | 0.00 | 63 | 990.8 |
| 20260905192448 | 89 | 54 | 3.0 | 7.0 | 0.00 | 0.00 | 0.00 | 64 | 990.9 |
| 20260905191948 | 89 | 28 | 3.0 | 8.0 | 0.00 | 0.00 | 0.00 | 64 | 990.8 |
| 20260905191448 | 90 | 11 | 4.0 | 8.0 | 0.00 | 0.00 | 0.00 | 64 | 990.9 |
| 20260905190947 | 90 | 329 | 4.0 | 8.0 | 0.00 | 0.00 | 0.00 | 63 | 991.0 |
| 20260905190447 | 90 | 356 | 3.0 | 7.0 | 0.00 | 0.00 | 0.00 | 63 | 990.9 |
| 20260905185947 | 90 | 31 | 3.0 | 8.0 | 0.00 | 0.00 | 0.00 | 63 | 991.0 |
| 20260905185448 | 90 | 317 | 4.0 | 9.0 | 0.00 | 0.00 | 0.00 | 62 | 991.0 |
| 20260905184948 | 89 | 335 | 4.0 | 9.0 | 0.00 | 0.00 | 0.00 | 63 | 991.1 |
| 20260905184711 | 89 | 12 | 3.0 | 7.0 | 0.00 | 0.00 | 0.00 | 65 | 991.1 |
| 20260905183948 | 89 | 23 | 3.0 | 7.0 | 0.00 | 0.00 | 0.00 | 64 | 991.1 |
| 20260905183717 | 89 | 322 | 3.0 | 8.0 | 0.00 | 0.00 | 0.00 | 65 | 991.0 |
| 20260905182949 | 90 | 42 | 3.0 | 8.0 | 0.00 | 0.00 | 0.00 | 65 | 991.0 |
| 20260905182447 | 90 | 291 | 3.0 | 6.0 | 0.00 | 0.00 | 0.00 | 63 | 991.1 |
| 20260905181948 | 89 | 12 | 2.0 | 6.0 | 0.00 | 0.00 | 0.00 | 65 | 991.1 |
| 20260905181449 | 90 | 5 | 3.0 | 9.0 | 0.00 | 0.00 | 0.00 | 65 | 991.2 |
| 20260905180948 | 90 | 47 | 3.0 | 9.0 | 0.00 | 0.00 | 0.00 | 64 | 991.2 |
| 20260905180446 | 90 | 46 | 2.0 | 8.0 | 0.00 | 0.00 | 0.00 | 64 | 991.1 |
| 20260905175947 | 90 | 353 | 2.0 | 6.0 | 0.00 | 0.00 | 0.00 | 65 | 991.1 |
| 20260905175447 | 89 | 353 | 3.0 | 6.0 | 0.00 | 0.00 | 0.00 | 66 | 991.1 |
| 20260905174947 | 89 | 9 | 2.0 | 6.0 | 0.00 | 0.00 | 0.00 | 67 | 991.1 |
| 20260905174447 | 90 | 56 | 2.0 | 7.0 | 0.00 | 0.00 | 0.00 | 65 | 991.1 |
| 20260905173947 | 90 | 21 | 2.0 | 7.0 | 0.00 | 0.00 | 0.00 | 66 | 991.2 |
| 20260905173448 | 89 | 314 | 2.0 | 7.0 | 0.00 | 0.00 | 0.00 | 67 | 991.2 |
| 20260905172948 | 89 | 334 | 3.0 | 8.0 | 0.00 | 0.00 | 0.00 | 67 | 991.2 |
| 20260905172705 | 89 | 358 | 2.0 | 8.0 | 0.00 | 0.00 | 0.00 | 67 | 991.2 |
| 20260905171947 | 88 | 250 | 2.0 | 6.0 | 0.00 | 0.00 | 0.00 | 69 | 991.2 |
| 20260905171447 | 89 | 55 | 3.0 | 9.0 | 0.00 | 0.00 | 0.00 | 69 | 991.3 |
| 20260905170946 | 89 | 346 | 3.0 | 9.0 | 0.00 | 0.00 | 0.00 | 67 | 991.4 |
| 20260905170444 | 88 | 23 | 2.0 | 4.0 | 0.00 | 0.00 | 0.00 | 70 | 991.4 |
| 20260905165943 | 88 | 309 | 2.0 | 5.0 | 0.00 | 0.00 | 0.00 | 70 | 991.4 |
| 20260905165444 | 88 | 12 | 3.0 | 8.0 | 0.00 | 0.00 | 0.00 | 70 | 991.5 |
| 20260905164943 | 88 | 52 | 3.0 | 8.0 | 0.00 | 0.00 | 0.00 | 69 | 991.5 |
| 20260905164443 | 88 | 350 | 3.0 | 9.0 | 0.00 | 0.00 | 0.00 | 68 | 991.5 |
| 20260905163944 | 88 | 325 | 3.0 | 9.0 | 0.00 | 0.00 | 0.00 | 69 | 991.5 |
| 20260905163444 | 88 | 292 | 3.0 | 6.0 | 0.00 | 0.00 | 0.00 | 70 | 991.5 |
| 20260905162945 | 87 | 287 | 2.0 | 7.0 | 0.00 | 0.00 | 0.00 | 71 | 991.5 |
| 20260905162444 | 87 | 26 | 3.0 | 7.0 | 0.00 | 0.00 | 0.00 | 72 | 991.5 |
| 20260905161945 | 87 | 14 | 3.0 | 7.0 | 0.00 | 0.00 | 0.00 | 71 | 991.6 |
| 20260905161445 | 87 | 82 | 3.0 | 8.0 | 0.00 | 0.00 | 0.00 | 71 | 991.6 |
| 20260905160945 | 87 | 352 | 4.0 | 8.0 | 0.00 | 0.00 | 0.00 | 71 | 991.6 |
| 20260905160441 | 87 | 13 | 3.0 | 7.0 | 0.00 | 0.00 | 0.00 | 71 | 991.5 |
| 20260905155942 | 87 | 282 | 3.0 | 6.0 | 0.00 | 0.00 | 0.00 | 73 | 991.5 |
| 20260905155441 | 86 | 324 | 3.0 | 6.0 | 0.00 | 0.00 | 0.00 | 74 | 991.4 |
| 20260905154942 | 86 | 42 | 3.0 | 7.0 | 0.00 | 0.00 | 0.00 | 73 | 991.3 |
| 20260905154442 | 86 | 6 | 3.0 | 9.0 | 0.00 | 0.00 | 0.00 | 73 | 991.2 |
| 20260905153942 | 86 | 354 | 4.0 | 9.0 | 0.00 | 0.00 | 0.00 | 73 | 991.2 |
| 20260905153442 | 86 | 52 | 4.0 | 8.0 | 0.00 | 0.00 | 0.00 | 73 | 991.3 |
| 20260905152942 | 86 | 14 | 4.0 | 8.0 | 0.00 | 0.00 | 0.00 | 73 | 991.3 |
| 20260905152928 | 86 | 26 | 3.0 | 6.0 | 0.00 | 0.00 | 0.00 | 73 | 991.2 |
| 20260905151942 | 86 | 344 | 3.0 | 6.0 | 0.00 | 0.00 | 0.00 | 75 | 991.2 |
| 20260905151442 | 86 | 306 | 3.0 | 7.0 | 0.00 | 0.00 | 0.00 | 75 | 991.1 |
| 20260905150942 | 85 | 1 | 3.0 | 7.0 | 0.00 | 0.00 | 0.00 | 76 | 991.0 |
| 20260905150439 | 85 | 54 | 2.0 | 7.0 | 0.00 | 0.00 | 0.00 | 77 | 991.0 |
| 20260905145940 | 85 | 359 | 2.0 | 7.0 | 0.00 | 0.00 | 0.00 | 77 | 990.9 |
| 20260905145440 | 85 | 9 | 3.0 | 7.0 | 0.00 | 0.00 | 0.00 | 77 | 990.9 |
| 20260905145424 | 85 | 12 | 2.0 | 6.0 | 0.00 | 0.00 | 0.00 | 79 | 990.9 |
| 20260905144440 | 85 | 211 | 2.0 | 4.0 | 0.00 | 0.00 | 0.00 | 78 | 990.9 |
| 20260905143940 | 84 | 250 | 2.0 | 4.0 | 0.00 | 0.00 | 0.00 | 79 | 990.9 |
| 20260905143440 | 84 | 312 | 2.0 | 4.0 | 0.00 | 0.00 | 0.00 | 80 | 990.8 |
| 20260905142940 | 83 | 18 | 2.0 | 5.0 | 0.00 | 0.00 | 0.00 | 81 | 990.7 |
| 20260905142703 | 83 | 349 | 2.0 | 5.0 | 0.00 | 0.00 | 0.00 | 81 | 990.7 |
| 20260905141941 | 83 | 318 | 2.0 | 4.0 | 0.00 | 0.00 | 0.00 | 82 | 990.7 |
| 20260905141437 | 82 | 324 | 3.0 | 7.0 | 0.00 | 0.00 | 0.00 | 82 | 990.7 |
| 20260905140938 | 82 | 19 | 3.0 | 7.0 | 0.00 | 0.00 | 0.00 | 82 | 990.6 |
| 20260905140434 | 82 | 41 | 3.0 | 6.0 | 0.00 | 0.00 | 0.00 | 83 | 990.6 |
| 20260905135935 | 82 | 25 | 2.0 | 6.0 | 0.00 | 0.00 | 0.00 | 82 | 990.6 |
| 20260905135432 | 82 | 69 | 2.0 | 5.0 | 0.00 | 0.00 | 0.00 | 83 | 990.5 |
| 20260905134933 | 82 | 314 | 2.0 | 5.0 | 0.00 | 0.00 | 0.00 | 83 | 990.6 |
| 20260905134432 | 82 | 3 | 2.0 | 6.0 | 0.00 | 0.00 | 0.00 | 83 | 990.8 |
| 20260905133932 | 81 | 64 | 3.0 | 6.0 | 0.00 | 0.00 | 0.00 | 83 | 990.9 |
| 20260905133432 | 81 | 29 | 2.0 | 6.0 | 0.00 | 0.00 | 0.00 | 83 | 991.1 |
| 20260905132932 | 81 | 316 | 2.0 | 6.0 | 0.00 | 0.00 | 0.00 | 84 | 991.1 |
| 20260905132432 | 81 | 310 | 2.0 | 6.0 | 0.00 | 0.00 | 0.00 | 84 | 991.0 |
| 20260905131933 | 81 | 290 | 2.0 | 5.0 | 0.00 | 0.00 | 0.00 | 85 | 990.9 |
| 20260905131430 | 81 | 294 | 2.0 | 5.0 | 0.00 | 0.00 | 0.00 | 84 | 990.8 |
| 20260905130929 | 81 | 288 | 2.0 | 4.0 | 0.00 | 0.00 | 0.00 | 85 | 990.6 |
| 20260905130430 | 80 | 335 | 1.0 | 4.0 | 0.00 | 0.00 | 0.00 | 85 | 990.5 |
| 20260905125927 | 80 | 296 | 2.0 | 4.0 | 0.00 | 0.00 | 0.00 | 85 | 990.5 |
| 20260905125426 | 80 | 267 | 1.0 | 4.0 | 0.00 | 0.00 | 0.00 | 86 | 990.4 |
| 20260905125142 | 80 | 312 | 1.0 | 2.0 | 0.00 | 0.00 | 0.00 | 86 | 990.4 |
| 20260905124647 | 80 | 331 | 1.0 | 2.0 | 0.00 | 0.00 | 0.00 | 86 | 990.3 |
| 20260905123925 | 80 | 0 | 0.0 | 2.0 | 0.00 | 0.00 | 0.00 | 87 | 990.2 |
| 20260905123424 | 79 | 0 | 0.0 | 2.0 | 0.00 | 0.00 | 0.00 | 88 | 990.1 |
| 20260905122925 | 79 | 0 | 0.0 | 2.0 | 0.00 | 0.00 | 0.00 | 89 | 990.0 |
| 20260905122424 | 78 | 248 | 0.0 | 3.0 | 0.00 | 0.00 | 0.00 | 89 | 990.0 |
| 20260905121925 | 78 | 0 | 0.0 | 3.0 | 0.00 | 0.00 | 0.00 | 90 | 989.9 |